Time,TemperatureF,DewpointF,PressureIn,WindDirection,WindDirectionDegrees,WindSpeedMPH,WindSpeedGustMPH,Humidity,HourlyPrecipIn,Conditions,Clouds,dailyrainin,SoftwareType,DateUTC
2013-06-27 00:05:00,68.8,67.3,29.69,SE,126,0.0,0.0,95,0.00,,,0.00,Wunderground v.1.15,2013-06-27 05:05:00,
2013-06-27 00:10:00,68.7,66.9,29.69,SE,124,0.0,0.0,94,0.00,,,0.00,Wunderground v.1.15,2013-06-27 05:10:00,
2013-06-27 00:16:00,68.5,67.0,29.69,SE,124,0.0,0.0,95,0.00,,,0.00,Wunderground v.1.15,2013-06-27 05:16:00,
2013-06-27 00:22:00,68.3,66.8,29.69,SE,124,0.0,0.0,95,0.00,,,0.00,Wunderground v.1.15,2013-06-27 05:22:00,
2013-06-27 00:28:00,68.2,66.7,29.69,SE,124,0.0,0.0,95,0.00,,,0.00,Wunderground v.1.15,2013-06-27 05:28:00,
2013-06-27 00:33:00,68.0,66.5,29.69,SE,124,0.0,0.0,95,0.00,,,0.00,Wunderground v.1.15,2013-06-27 05:33:00,
2013-06-27 00:39:00,67.9,66.4,29.69,SE,124,0.0,0.0,95,0.00,,,0.00,Wunderground v.1.15,2013-06-27 05:39:00,
2013-06-27 00:45:00,67.7,66.2,29.70,SE,124,0.0,0.0,95,0.00,,,0.00,Wunderground v.1.15,2013-06-27 05:45:00,
2013-06-27 00:51:00,67.8,66.3,29.70,SE,124,0.0,0.0,95,0.00,,,0.00,Wunderground v.1.15,2013-06-27 05:51:00,
2013-06-27 00:56:00,67.8,66.6,29.70,SE,124,0.0,0.0,96,0.00,,,0.00,Wunderground v.1.15,2013-06-27 05:56:00,
2013-06-27 01:02:00,67.8,66.6,29.70,SE,124,0.0,0.0,96,0.00,,,0.00,Wunderground v.1.15,2013-06-27 06:02:00,
2013-06-27 01:07:00,67.7,66.5,29.69,SE,124,0.0,0.0,96,0.00,,,0.00,Wunderground v.1.15,2013-06-27 06:07:00,
2013-06-27 01:13:00,67.7,66.5,29.70,SE,124,0.0,0.0,96,0.00,,,0.00,Wunderground v.1.15,2013-06-27 06:13:00,
2013-06-27 01:19:00,67.6,66.4,29.69,SE,124,0.0,0.0,96,0.00,,,0.00,Wunderground v.1.15,2013-06-27 06:19:00,
2013-06-27 01:24:00,67.4,65.9,29.70,SE,124,0.0,0.0,95,0.00,,,0.00,Wunderground v.1.15,2013-06-27 06:24:00,
2013-06-27 01:30:00,67.2,65.7,29.70,SE,124,0.0,0.0,95,0.00,,,0.00,Wunderground v.1.15,2013-06-27 06:30:00,
2013-06-27 01:36:00,67.1,65.6,29.70,SE,124,0.0,0.0,95,0.00,,,0.00,Wunderground v.1.15,2013-06-27 06:36:00,
2013-06-27 01:41:00,67.1,65.9,29.70,SE,124,0.0,0.0,96,0.00,,,0.00,Wunderground v.1.15,2013-06-27 06:41:00,
2013-06-27 01:47:00,67.2,66.0,29.69,SE,124,0.0,0.0,96,0.00,,,0.00,Wunderground v.1.15,2013-06-27 06:47:00,
2013-06-27 01:53:00,67.0,65.8,29.69,SE,124,0.0,0.0,96,0.00,,,0.00,Wunderground v.1.15,2013-06-27 06:53:00,
2013-06-27 01:59:00,66.8,65.3,29.69,SE,124,0.0,0.0,95,0.00,,,0.00,Wunderground v.1.15,2013-06-27 06:59:00,
2013-06-27 02:05:00,66.7,65.5,29.69,SE,124,0.0,0.0,96,0.00,,,0.00,Wunderground v.1.15,2013-06-27 07:05:00,
2013-06-27 02:10:00,66.7,65.5,29.69,SE,124,0.0,0.0,96,0.00,,,0.00,Wunderground v.1.15,2013-06-27 07:10:00,
2013-06-27 02:16:00,66.3,64.8,29.69,SE,124,0.0,0.0,95,0.00,,,0.00,Wunderground v.1.15,2013-06-27 07:16:00,
2013-06-27 02:22:00,66.1,64.6,29.69,SE,124,0.0,0.0,95,0.00,,,0.00,Wunderground v.1.15,2013-06-27 07:22:00,
2013-06-27 02:27:00,66.1,64.9,29.69,SE,124,0.0,0.0,96,0.00,,,0.00,Wunderground v.1.15,2013-06-27 07:27:00,
2013-06-27 02:33:00,66.1,64.9,29.69,SE,124,0.0,0.0,96,0.00,,,0.00,Wunderground v.1.15,2013-06-27 07:33:00,
2013-06-27 02:39:00,65.9,64.7,29.69,SE,124,0.0,0.0,96,0.00,,,0.00,Wunderground v.1.15,2013-06-27 07:39:00,
2013-06-27 02:45:00,65.8,64.6,29.70,SE,124,0.0,0.0,96,0.00,,,0.00,Wunderground v.1.15,2013-06-27 07:45:00,
2013-06-27 02:51:00,65.9,64.7,29.70,SE,124,0.0,0.0,96,0.00,,,0.00,Wunderground v.1.15,2013-06-27 07:51:00,
2013-06-27 02:56:00,65.9,64.7,29.70,SE,124,0.0,0.0,96,0.00,,,0.00,Wunderground v.1.15,2013-06-27 07:56:00,
2013-06-27 03:02:00,65.8,64.6,29.70,SE,124,0.0,0.0,96,0.00,,,0.00,Wunderground v.1.15,2013-06-27 08:02:00,
2013-06-27 03:07:00,65.6,64.4,29.70,SE,124,0.0,0.0,96,0.00,,,0.00,Wunderground v.1.15,2013-06-27 08:07:00,
2013-06-27 03:12:00,65.5,64.3,29.70,SE,124,0.0,0.0,96,0.00,,,0.00,Wunderground v.1.15,2013-06-27 08:12:00,
2013-06-27 03:18:00,65.5,64.3,29.70,SE,124,0.0,0.0,96,0.00,,,0.00,Wunderground v.1.15,2013-06-27 08:18:00,
2013-06-27 03:24:00,65.5,64.3,29.70,SE,124,0.0,0.0,96,0.00,,,0.00,Wunderground v.1.15,2013-06-27 08:24:00,
2013-06-27 03:29:00,65.6,64.4,29.70,SE,124,0.0,0.0,96,0.00,,,0.00,Wunderground v.1.15,2013-06-27 08:29:00,
2013-06-27 03:35:00,65.4,64.2,29.70,SE,124,0.0,0.0,96,0.00,,,0.00,Wunderground v.1.15,2013-06-27 08:35:00,
2013-06-27 03:41:00,65.4,64.2,29.70,SE,124,0.0,0.0,96,0.00,,,0.00,Wunderground v.1.15,2013-06-27 08:41:00,
2013-06-27 03:47:00,65.3,64.1,29.70,SE,124,0.0,0.0,96,0.00,,,0.00,Wunderground v.1.15,2013-06-27 08:47:00,
2013-06-27 03:53:00,65.2,64.0,29.70,SE,124,0.0,0.0,96,0.00,,,0.00,Wunderground v.1.15,2013-06-27 08:53:00,
2013-06-27 03:58:00,65.2,64.0,29.70,SE,124,0.0,0.0,96,0.00,,,0.00,Wunderground v.1.15,2013-06-27 08:58:00,
2013-06-27 04:09:00,66.0,65.1,29.70,SE,124,0.0,0.0,97,0.00,,,0.00,Wunderground v.1.15,2013-06-27 09:09:00,
2013-06-27 04:15:00,66.4,65.5,29.70,West,259,0.0,0.0,97,0.00,,,0.00,Wunderground v.1.15,2013-06-27 09:15:00,
2013-06-27 04:21:00,66.5,65.6,29.70,West,259,0.0,0.0,97,0.00,,,0.00,Wunderground v.1.15,2013-06-27 09:21:00,
2013-06-27 04:27:00,66.1,65.2,29.70,West,259,0.0,0.0,97,0.00,,,0.00,Wunderground v.1.15,2013-06-27 09:27:00,
2013-06-27 04:32:00,66.0,65.1,29.70,West,259,0.0,0.0,97,0.00,,,0.00,Wunderground v.1.15,2013-06-27 09:32:00,
2013-06-27 04:38:00,66.2,65.3,29.70,West,259,0.0,0.0,97,0.00,,,0.00,Wunderground v.1.15,2013-06-27 09:38:00,
2013-06-27 04:44:00,66.2,65.3,29.70,West,259,0.0,0.0,97,0.00,,,0.00,Wunderground v.1.15,2013-06-27 09:44:00,
2013-06-27 04:50:00,65.8,64.9,29.71,West,259,0.0,0.0,97,0.00,,,0.00,Wunderground v.1.15,2013-06-27 09:50:00,
2013-06-27 04:55:00,66.0,65.1,29.71,West,259,0.0,0.0,97,0.00,,,0.00,Wunderground v.1.15,2013-06-27 09:55:00,
2013-06-27 05:02:00,66.4,65.5,29.71,WNW,286,0.0,0.0,97,0.00,,,0.00,Wunderground v.1.15,2013-06-27 10:02:00,
2013-06-27 05:07:00,66.7,65.8,29.71,WNW,286,0.0,0.0,97,0.00,,,0.00,Wunderground v.1.15,2013-06-27 10:07:00,
2013-06-27 05:13:00,66.7,65.8,29.71,NW,323,0.0,0.0,97,0.00,,,0.00,Wunderground v.1.15,2013-06-27 10:13:00,
2013-06-27 05:18:00,66.7,65.8,29.71,NW,323,0.0,0.0,97,0.00,,,0.00,Wunderground v.1.15,2013-06-27 10:18:00,
2013-06-27 05:24:00,66.5,65.6,29.71,NNW,333,0.0,0.0,97,0.00,,,0.00,Wunderground v.1.15,2013-06-27 10:24:00,
2013-06-27 05:29:00,66.5,65.6,29.71,NE,38,0.0,0.0,97,0.00,,,0.00,Wunderground v.1.15,2013-06-27 10:29:00,
2013-06-27 05:35:00,66.3,65.4,29.71,NE,38,0.0,0.0,97,0.00,,,0.00,Wunderground v.1.15,2013-06-27 10:35:00,
2013-06-27 05:41:00,66.2,65.3,29.71,NE,38,0.0,0.0,97,0.00,,,0.00,Wunderground v.1.15,2013-06-27 10:41:00,
2013-06-27 05:46:00,66.1,65.2,29.71,NE,38,0.0,0.0,97,0.00,,,0.00,Wunderground v.1.15,2013-06-27 10:46:00,
2013-06-27 05:52:00,66.1,65.2,29.71,NE,38,0.0,0.0,97,0.00,,,0.00,Wunderground v.1.15,2013-06-27 10:52:00,
2013-06-27 05:58:00,66.0,65.1,29.71,NE,38,0.0,0.0,97,0.00,,,0.00,Wunderground v.1.15,2013-06-27 10:58:00,
2013-06-27 06:04:00,66.0,65.1,29.72,NE,36,0.0,0.0,97,0.00,,,0.00,Wunderground v.1.15,2013-06-27 11:04:00,
2013-06-27 06:10:00,66.1,65.2,29.72,NE,37,0.0,0.0,97,0.00,,,0.00,Wunderground v.1.15,2013-06-27 11:10:00,
2013-06-27 06:15:00,66.1,65.2,29.72,NE,35,0.0,0.0,97,0.00,,,0.00,Wunderground v.1.15,2013-06-27 11:15:00,
2013-06-27 06:21:00,66.2,65.3,29.72,NE,35,0.0,0.0,97,0.00,,,0.00,Wunderground v.1.15,2013-06-27 11:21:00,
2013-06-27 06:26:00,66.2,65.3,29.72,NNE,24,0.0,0.0,97,0.00,,,0.00,Wunderground v.1.15,2013-06-27 11:26:00,
2013-06-27 06:32:00,66.3,65.4,29.72,NNE,24,0.0,0.0,97,0.00,,,0.00,Wunderground v.1.15,2013-06-27 11:32:00,
2013-06-27 06:38:00,66.5,65.6,29.72,NNE,24,0.0,0.0,97,0.00,,,0.00,Wunderground v.1.15,2013-06-27 11:38:00,
2013-06-27 06:44:00,66.7,65.8,29.72,NNE,24,0.0,0.0,97,0.00,,,0.00,Wunderground v.1.15,2013-06-27 11:44:00,
2013-06-27 06:49:00,66.8,65.9,29.71,NNE,24,0.0,0.0,97,0.00,,,0.00,Wunderground v.1.15,2013-06-27 11:49:00,
2013-06-27 06:55:00,67.0,66.1,29.71,NNE,24,0.0,0.0,97,0.00,,,0.00,Wunderground v.1.15,2013-06-27 11:55:00,
2013-06-27 07:00:00,67.0,66.1,29.72,WNW,302,0.0,0.0,97,0.00,,,0.00,Wunderground v.1.15,2013-06-27 12:00:00,
2013-06-27 07:06:00,67.2,66.3,29.72,NW,304,0.0,0.0,97,0.00,,,0.00,Wunderground v.1.15,2013-06-27 12:06:00,
2013-06-27 07:12:00,67.5,66.6,29.72,WSW,248,0.0,0.0,97,0.00,,,0.00,Wunderground v.1.15,2013-06-27 12:12:00,
2013-06-27 07:18:00,67.7,66.8,29.72,WNW,285,0.0,0.0,97,0.00,,,0.00,Wunderground v.1.15,2013-06-27 12:18:00,
2013-06-27 07:23:00,68.3,67.4,29.72,West,273,0.0,0.0,97,0.00,,,0.00,Wunderground v.1.15,2013-06-27 12:23:00,
2013-06-27 07:29:00,68.3,67.4,29.72,West,265,0.0,0.0,97,0.00,,,0.00,Wunderground v.1.15,2013-06-27 12:29:00,
2013-06-27 07:35:00,68.5,67.6,29.72,West,260,0.0,0.0,97,0.00,,,0.00,Wunderground v.1.15,2013-06-27 12:35:00,
2013-06-27 07:40:00,68.6,67.7,29.72,West,281,0.0,0.0,97,0.00,,,0.00,Wunderground v.1.15,2013-06-27 12:40:00,
2013-06-27 07:46:00,68.8,67.6,29.71,WNW,286,0.0,0.0,96,0.00,,,0.00,Wunderground v.1.15,2013-06-27 12:46:00,
2013-06-27 07:52:00,69.3,68.1,29.72,WNW,285,0.0,0.0,96,0.00,,,0.00,Wunderground v.1.15,2013-06-27 12:52:00,
2013-06-27 07:58:00,69.9,68.4,29.71,West,275,0.0,0.0,95,0.00,,,0.00,Wunderground v.1.15,2013-06-27 12:58:00,
2013-06-27 08:04:00,70.3,68.5,29.71,North,5,0.0,0.0,94,0.00,,,0.00,Wunderground v.1.15,2013-06-27 13:04:00,
2013-06-27 08:10:00,70.6,68.2,29.70,NNW,332,0.0,0.0,92,0.00,,,0.00,Wunderground v.1.15,2013-06-27 13:10:00,
2013-06-27 08:16:00,70.8,68.4,29.71,NNW,332,0.0,0.0,92,0.00,,,0.00,Wunderground v.1.15,2013-06-27 13:16:00,
2013-06-27 08:22:00,71.0,68.2,29.71,West,277,0.0,0.0,91,0.00,,,0.00,Wunderground v.1.15,2013-06-27 13:22:00,
2013-06-27 08:28:00,71.2,68.1,29.71,West,271,0.0,0.0,90,0.00,,,0.00,Wunderground v.1.15,2013-06-27 13:28:00,
2013-06-27 08:33:00,71.5,68.1,29.71,West,266,0.0,0.0,89,0.00,,,0.00,Wunderground v.1.15,2013-06-27 13:33:00,
2013-06-27 08:39:00,72.2,69.1,29.71,West,261,0.0,0.0,90,0.00,,,0.00,Wunderground v.1.15,2013-06-27 13:39:00,
2013-06-27 08:45:00,72.8,69.7,29.72,WNW,288,0.0,0.0,90,0.00,,,0.00,Wunderground v.1.15,2013-06-27 13:45:00,
2013-06-27 08:50:00,72.6,68.8,29.72,WNW,292,0.0,0.0,88,0.00,,,0.00,Wunderground v.1.15,2013-06-27 13:50:00,
2013-06-27 08:56:00,72.4,68.6,29.72,WNW,286,0.0,0.0,88,0.00,,,0.00,Wunderground v.1.15,2013-06-27 13:56:00,
2013-06-27 09:02:00,72.1,68.3,29.72,WNW,282,0.0,0.0,88,0.00,,,0.00,Wunderground v.1.15,2013-06-27 14:02:00,
2013-06-27 09:07:00,71.9,68.2,29.72,West,279,0.0,0.0,88,0.00,,,0.00,Wunderground v.1.15,2013-06-27 14:07:00,
2013-06-27 09:13:00,71.9,68.5,29.71,WNW,288,0.0,0.0,89,0.00,,,0.00,Wunderground v.1.15,2013-06-27 14:13:00,
2013-06-27 09:19:00,72.2,68.1,29.70,WSW,250,0.0,0.0,87,0.00,,,0.00,Wunderground v.1.15,2013-06-27 14:19:00,
2013-06-27 09:25:00,72.6,68.2,29.71,WSW,244,0.0,0.0,86,0.00,,,0.00,Wunderground v.1.15,2013-06-27 14:25:00,
2013-06-27 09:30:00,72.9,68.5,29.70,SW,228,0.0,0.0,86,0.00,,,0.00,Wunderground v.1.15,2013-06-27 14:30:00,
2013-06-27 09:36:00,72.9,67.8,29.70,West,259,0.0,0.0,84,0.00,,,0.00,Wunderground v.1.15,2013-06-27 14:36:00,
2013-06-27 09:42:00,72.9,68.1,29.70,WSW,257,0.0,0.0,85,0.00,,,0.00,Wunderground v.1.15,2013-06-27 14:42:00,
2013-06-27 09:48:00,72.8,68.7,29.70,SW,234,0.0,0.0,87,0.00,,,0.00,Wunderground v.1.15,2013-06-27 14:48:00,
2013-06-27 09:53:00,72.7,68.3,29.70,WSW,244,0.0,0.0,86,0.00,,,0.00,Wunderground v.1.15,2013-06-27 14:53:00,
2013-06-27 09:59:00,72.8,68.7,29.70,WSW,246,0.0,0.0,87,0.00,,,0.00,Wunderground v.1.15,2013-06-27 14:59:00,
2013-06-27 10:04:00,73.0,68.6,29.70,WSW,257,0.0,0.0,86,0.00,,,0.00,Wunderground v.1.15,2013-06-27 15:04:00,
2013-06-27 10:09:00,73.2,68.8,29.69,WSW,248,0.0,0.0,86,0.00,,,0.00,Wunderground v.1.15,2013-06-27 15:09:00,
2013-06-27 10:15:00,73.6,68.8,29.69,SW,236,0.0,0.0,85,0.00,,,0.00,Wunderground v.1.15,2013-06-27 15:15:00,
2013-06-27 10:21:00,74.2,68.7,29.69,WSW,243,0.0,0.0,83,0.00,,,0.00,Wunderground v.1.15,2013-06-27 15:21:00,
2013-06-27 10:27:00,74.9,69.0,29.68,WSW,246,0.0,0.0,82,0.00,,,0.00,Wunderground v.1.15,2013-06-27 15:27:00,
2013-06-27 10:33:00,75.8,66.9,29.68,WSW,251,0.0,0.0,74,0.00,,,0.00,Wunderground v.1.15,2013-06-27 15:33:00,
2013-06-27 10:39:00,76.5,65.6,29.68,WSW,254,0.0,0.0,69,0.00,,,0.00,Wunderground v.1.15,2013-06-27 15:39:00,
2013-06-27 10:45:00,76.4,65.5,29.68,West,259,0.0,0.0,69,0.00,,,0.00,Wunderground v.1.15,2013-06-27 15:45:00,
2013-06-27 10:51:00,76.3,66.6,29.68,WSW,252,0.0,0.0,72,0.00,,,0.00,Wunderground v.1.15,2013-06-27 15:51:00,
2013-06-27 10:57:00,76.6,67.7,29.68,WNW,290,0.0,0.0,74,0.00,,,0.00,Wunderground v.1.15,2013-06-27 15:57:00,
2013-06-27 11:03:00,77.1,68.6,29.69,North,355,0.0,0.0,75,0.00,,,0.00,Wunderground v.1.15,2013-06-27 16:03:00,
2013-06-27 11:09:00,76.9,66.0,29.69,WNW,297,0.0,0.0,69,0.00,,,0.00,Wunderground v.1.15,2013-06-27 16:09:00,
2013-06-27 11:15:00,77.1,67.4,29.69,WSW,251,0.0,0.0,72,0.00,,,0.00,Wunderground v.1.15,2013-06-27 16:15:00,
2013-06-27 11:20:00,77.1,66.6,29.69,NNE,18,0.0,0.0,70,0.00,,,0.00,Wunderground v.1.15,2013-06-27 16:20:00,
2013-06-27 11:26:00,76.9,66.4,29.69,North,351,0.0,0.0,70,0.00,,,0.00,Wunderground v.1.15,2013-06-27 16:26:00,
2013-06-27 11:32:00,76.7,65.3,29.68,NNE,31,0.0,0.0,68,0.00,,,0.00,Wunderground v.1.15,2013-06-27 16:32:00,
2013-06-27 11:38:00,76.8,66.7,29.68,ENE,59,0.0,0.0,71,0.00,,,0.00,Wunderground v.1.15,2013-06-27 16:38:00,
2013-06-27 11:44:00,77.1,65.7,29.67,ENE,58,0.0,0.0,68,0.00,,,0.00,Wunderground v.1.15,2013-06-27 16:44:00,
2013-06-27 11:49:00,77.8,66.8,29.67,East,86,0.0,0.0,69,0.00,,,0.00,Wunderground v.1.15,2013-06-27 16:49:00,
2013-06-27 11:55:00,78.2,67.2,29.67,ESE,117,0.0,0.0,69,0.00,,,0.00,Wunderground v.1.15,2013-06-27 16:55:00,
2013-06-27 12:02:00,77.8,66.4,29.67,SE,141,0.0,0.0,68,0.00,,,0.00,Wunderground v.1.15,2013-06-27 17:02:00,
2013-06-27 12:07:00,72.8,62.0,29.70,NNW,336,0.0,0.0,69,0.00,,,0.01,Wunderground v.1.15,2013-06-27 17:07:00,
2013-06-27 12:13:00,66.8,61.5,29.69,NNE,33,0.0,0.0,83,0.38,,,0.14,Wunderground v.1.15,2013-06-27 17:13:00,
2013-06-27 12:19:00,65.6,61.0,29.69,ENE,63,0.0,0.0,85,0.08,,,0.14,Wunderground v.1.15,2013-06-27 17:19:00,
2013-06-27 12:25:00,66.2,62.5,29.69,ESE,106,0.0,0.0,88,0.04,,,0.14,Wunderground v.1.15,2013-06-27 17:25:00,
2013-06-27 12:30:00,68.0,65.0,29.69,ESE,105,0.0,0.0,90,0.00,,,0.14,Wunderground v.1.15,2013-06-27 17:30:00,
2013-06-27 12:36:00,69.0,64.3,29.68,ESE,119,0.0,0.0,85,0.00,,,0.14,Wunderground v.1.15,2013-06-27 17:36:00,
2013-06-27 12:42:00,69.4,64.7,29.68,ESE,119,0.0,0.0,85,0.00,,,0.14,Wunderground v.1.15,2013-06-27 17:42:00,
2013-06-27 12:47:00,69.7,64.3,29.68,ESE,119,0.0,0.0,83,0.00,,,0.14,Wunderground v.1.15,2013-06-27 17:47:00,
2013-06-27 12:53:00,70.4,64.6,29.68,SE,134,0.0,0.0,82,0.00,,,0.14,Wunderground v.1.15,2013-06-27 17:53:00,
2013-06-27 12:59:00,71.9,64.7,29.68,SSE,161,0.0,0.0,78,0.00,,,0.14,Wunderground v.1.15,2013-06-27 17:59:00,
2013-06-27 13:05:00,73.1,65.8,29.68,SSE,161,0.0,0.0,78,0.00,,,0.14,Wunderground v.1.15,2013-06-27 18:05:00,
2013-06-27 13:10:00,74.0,66.0,29.67,SSE,161,0.0,0.0,76,0.00,,,0.14,Wunderground v.1.15,2013-06-27 18:10:00,
2013-06-27 13:15:00,74.9,67.2,29.67,SSE,167,0.0,0.0,77,0.00,,,0.14,Wunderground v.1.15,2013-06-27 18:15:00,
2013-06-27 13:21:00,75.9,68.9,29.67,SE,140,0.0,0.0,79,0.00,,,0.14,Wunderground v.1.15,2013-06-27 18:21:00,
2013-06-27 13:27:00,76.4,67.1,29.67,SSE,154,0.0,0.0,73,0.00,,,0.14,Wunderground v.1.15,2013-06-27 18:27:00,
2013-06-27 13:32:00,77.1,67.4,29.66,West,277,0.0,0.0,72,0.00,,,0.14,Wunderground v.1.15,2013-06-27 18:32:00,
2013-06-27 13:38:00,77.6,69.0,29.66,WSW,248,0.0,0.0,75,0.00,,,0.14,Wunderground v.1.15,2013-06-27 18:38:00,
2013-06-27 13:44:00,78.0,69.0,29.66,SE,142,0.0,0.0,74,0.00,,,0.14,Wunderground v.1.15,2013-06-27 18:44:00,
2013-06-27 13:50:00,78.4,68.2,29.66,SE,127,0.0,0.0,71,0.00,,,0.14,Wunderground v.1.15,2013-06-27 18:50:00,
2013-06-27 13:56:00,78.8,68.2,29.65,SSW,198,0.0,0.0,70,0.00,,,0.14,Wunderground v.1.15,2013-06-27 18:56:00,
2013-06-27 14:02:00,79.1,68.5,29.65,SW,229,0.0,0.0,70,0.00,,,0.14,Wunderground v.1.15,2013-06-27 19:02:00,
2013-06-27 14:07:00,79.5,70.1,29.65,SW,217,0.0,0.0,73,0.00,,,0.14,Wunderground v.1.15,2013-06-27 19:07:00,
2013-06-27 14:11:00,80.0,69.3,29.65,SSW,194,0.0,0.0,70,0.00,,,0.14,Wunderground v.1.15,2013-06-27 19:11:00,
2013-06-27 14:17:00,80.5,69.8,29.64,WSW,250,0.0,0.0,70,0.00,,,0.14,Wunderground v.1.15,2013-06-27 19:17:00,
2013-06-27 14:22:00,81.1,70.0,29.64,WSW,249,0.0,0.0,69,0.00,,,0.14,Wunderground v.1.15,2013-06-27 19:22:00,
2013-06-27 14:28:00,81.2,70.1,29.64,West,281,0.0,0.0,69,0.00,,,0.15,Wunderground v.1.15,2013-06-27 19:28:00,
2013-06-27 14:34:00,81.4,70.7,29.64,West,262,0.0,0.0,70,0.00,,,0.15,Wunderground v.1.15,2013-06-27 19:34:00,
2013-06-27 14:40:00,81.7,71.4,29.63,WSW,254,0.0,0.0,71,0.00,,,0.15,Wunderground v.1.15,2013-06-27 19:40:00,
2013-06-27 14:46:00,81.8,68.9,29.63,WSW,254,0.0,0.0,65,0.00,,,0.15,Wunderground v.1.15,2013-06-27 19:46:00,
2013-06-27 14:52:00,81.6,69.6,29.63,West,261,0.0,0.0,67,0.00,,,0.15,Wunderground v.1.15,2013-06-27 19:52:00,
2013-06-27 14:57:00,81.8,68.0,29.62,West,274,0.0,0.0,63,0.00,,,0.15,Wunderground v.1.15,2013-06-27 19:57:00,
2013-06-27 15:02:00,81.5,69.0,29.63,West,263,0.0,0.0,66,0.00,,,0.15,Wunderground v.1.15,2013-06-27 20:02:00,
2013-06-27 15:08:00,81.9,69.4,29.62,WSW,257,0.0,0.0,66,0.00,,,0.15,Wunderground v.1.15,2013-06-27 20:08:00,
2013-06-27 15:14:00,81.6,68.2,29.62,WSW,257,0.0,0.0,64,0.00,,,0.15,Wunderground v.1.15,2013-06-27 20:14:00,
2013-06-27 15:20:00,81.1,68.7,29.62,WSW,250,0.0,0.0,66,0.00,,,0.15,Wunderground v.1.15,2013-06-27 20:20:00,
2013-06-27 15:26:00,80.7,69.6,29.62,West,280,0.0,0.0,69,0.00,,,0.15,Wunderground v.1.15,2013-06-27 20:26:00,
2013-06-27 15:32:00,81.4,69.8,29.62,WSW,237,0.0,0.0,68,0.00,,,0.15,Wunderground v.1.15,2013-06-27 20:32:00,
2013-06-27 15:37:00,81.7,68.8,29.61,West,263,0.0,0.0,65,0.00,,,0.15,Wunderground v.1.15,2013-06-27 20:37:00,
2013-06-27 15:43:00,81.7,69.2,29.61,WNW,297,0.0,0.0,66,0.00,,,0.15,Wunderground v.1.15,2013-06-27 20:43:00,
2013-06-27 15:48:00,81.7,67.4,29.61,West,266,0.0,0.0,62,0.00,,,0.15,Wunderground v.1.15,2013-06-27 20:48:00,
2013-06-27 15:54:00,81.8,67.0,29.61,West,263,0.0,0.0,61,0.00,,,0.15,Wunderground v.1.15,2013-06-27 20:54:00,
2013-06-27 16:00:00,81.2,66.5,29.61,West,274,0.0,0.0,61,0.00,,,0.15,Wunderground v.1.15,2013-06-27 21:00:00,
2013-06-27 16:05:00,81.6,63.9,29.61,West,275,0.0,0.0,55,0.00,,,0.15,Wunderground v.1.15,2013-06-27 21:05:00,
2013-06-27 16:11:00,81.6,64.4,29.62,WNW,298,0.0,0.0,56,0.00,,,0.15,Wunderground v.1.15,2013-06-27 21:11:00,
2013-06-27 16:17:00,81.8,64.6,29.62,West,277,0.0,0.0,56,0.00,,,0.15,Wunderground v.1.15,2013-06-27 21:17:00,
2013-06-27 16:23:00,81.9,63.1,29.62,NW,310,0.0,0.0,53,0.00,,,0.15,Wunderground v.1.15,2013-06-27 21:23:00,
2013-06-27 16:28:00,82.1,63.8,29.61,West,268,0.0,0.0,54,0.00,,,0.15,Wunderground v.1.15,2013-06-27 21:28:00,
2013-06-27 16:34:00,82.3,65.0,29.62,WNW,286,0.0,0.0,56,0.00,,,0.15,Wunderground v.1.15,2013-06-27 21:34:00,
2013-06-27 16:41:00,82.0,64.2,29.62,NNW,329,0.0,0.0,55,0.00,,,0.15,Wunderground v.1.15,2013-06-27 21:41:00,
2013-06-27 16:47:00,81.9,63.6,29.62,NNW,328,0.0,0.0,54,0.00,,,0.15,Wunderground v.1.15,2013-06-27 21:47:00,
2013-06-27 16:52:00,82.1,63.3,29.62,WNW,294,0.0,0.0,53,0.00,,,0.15,Wunderground v.1.15,2013-06-27 21:52:00,
2013-06-27 16:58:00,81.7,64.5,29.62,WNW,285,0.0,0.0,56,0.00,,,0.15,Wunderground v.1.15,2013-06-27 21:58:00,
2013-06-27 17:03:00,81.7,63.4,29.62,West,281,0.0,0.0,54,0.00,,,0.15,Wunderground v.1.15,2013-06-27 22:03:00,
2013-06-27 17:09:00,81.5,64.3,29.62,WSW,254,0.0,0.0,56,0.00,,,0.15,Wunderground v.1.15,2013-06-27 22:09:00,
2013-06-27 17:15:00,81.5,63.3,29.62,WNW,296,0.0,0.0,54,0.00,,,0.15,Wunderground v.1.15,2013-06-27 22:15:00,
2013-06-27 17:20:00,81.6,62.3,29.62,West,276,0.0,0.0,52,0.00,,,0.15,Wunderground v.1.15,2013-06-27 22:20:00,
2013-06-27 17:25:00,81.6,63.3,29.61,West,269,0.0,0.0,54,0.00,,,0.15,Wunderground v.1.15,2013-06-27 22:25:00,
2013-06-27 17:31:00,81.7,63.4,29.61,West,279,0.0,0.0,54,0.00,,,0.15,Wunderground v.1.15,2013-06-27 22:31:00,
2013-06-27 17:37:00,81.7,64.0,29.62,West,276,0.0,0.0,55,0.00,,,0.15,Wunderground v.1.15,2013-06-27 22:37:00,
2013-06-27 17:44:00,81.6,63.3,29.62,WNW,288,0.0,0.0,54,0.00,,,0.15,Wunderground v.1.15,2013-06-27 22:44:00,
2013-06-27 17:49:00,81.4,63.2,29.62,WNW,289,0.0,0.0,54,0.00,,,0.15,Wunderground v.1.15,2013-06-27 22:49:00,
2013-06-27 17:55:00,81.2,63.0,29.62,WNW,283,0.0,0.0,54,0.00,,,0.15,Wunderground v.1.15,2013-06-27 22:55:00,
2013-06-27 18:02:00,81.1,62.9,29.62,West,279,0.0,0.0,54,0.00,,,0.15,Wunderground v.1.15,2013-06-27 23:02:00,
2013-06-27 18:07:00,81.1,63.4,29.62,West,280,0.0,0.0,55,0.00,,,0.15,Wunderground v.1.15,2013-06-27 23:07:00,
2013-06-27 18:13:00,81.0,62.8,29.62,NW,309,0.0,0.0,54,0.00,,,0.15,Wunderground v.1.15,2013-06-27 23:13:00,
2013-06-27 18:19:00,81.0,63.3,29.62,WNW,290,0.0,0.0,55,0.00,,,0.15,Wunderground v.1.15,2013-06-27 23:19:00,
2013-06-27 18:24:00,80.9,63.2,29.62,West,277,0.0,0.0,55,0.00,,,0.15,Wunderground v.1.15,2013-06-27 23:24:00,
2013-06-27 18:29:00,80.8,64.6,29.62,NW,309,0.0,0.0,58,0.00,,,0.15,Wunderground v.1.15,2013-06-27 23:29:00,
2013-06-27 18:35:00,80.8,63.6,29.63,West,266,0.0,0.0,56,0.00,,,0.15,Wunderground v.1.15,2013-06-27 23:35:00,
2013-06-27 18:41:00,80.6,62.9,29.62,NW,311,0.0,0.0,55,0.00,,,0.15,Wunderground v.1.15,2013-06-27 23:41:00,
2013-06-27 18:47:00,80.3,61.6,29.63,NW,306,0.0,0.0,53,0.00,,,0.15,Wunderground v.1.15,2013-06-27 23:47:00,
2013-06-27 18:53:00,80.2,62.0,29.63,WNW,299,0.0,0.0,54,0.00,,,0.15,Wunderground v.1.15,2013-06-27 23:53:00,
2013-06-27 18:58:00,80.4,62.2,29.64,NNE,24,0.0,0.0,54,0.00,,,0.15,Wunderground v.1.15,2013-06-27 23:58:00,
2013-06-27 19:04:00,80.5,61.8,29.64,NNE,29,0.0,0.0,53,0.00,,,0.15,Wunderground v.1.15,2013-06-28 00:04:00,
2013-06-27 19:09:00,79.5,64.4,29.64,ENE,66,0.0,0.0,60,0.00,,,0.15,Wunderground v.1.15,2013-06-28 00:09:00,
2013-06-27 19:15:00,77.7,64.1,29.64,NE,47,0.0,0.0,63,0.00,,,0.15,Wunderground v.1.15,2013-06-28 00:15:00,
2013-06-27 19:22:00,76.4,63.3,29.64,ENE,61,0.0,0.0,64,0.00,,,0.15,Wunderground v.1.15,2013-06-28 00:22:00,
2013-06-27 19:28:00,75.9,62.8,29.64,NE,53,0.0,0.0,64,0.00,,,0.15,Wunderground v.1.15,2013-06-28 00:28:00,
2013-06-27 19:35:00,75.6,63.9,29.65,East,82,0.0,0.0,67,0.00,,,0.15,Wunderground v.1.15,2013-06-28 00:35:00,
2013-06-27 19:40:00,75.5,63.3,29.65,ESE,107,0.0,0.0,66,0.00,,,0.15,Wunderground v.1.15,2013-06-28 00:40:00,
2013-06-27 19:45:00,75.1,62.5,29.65,ENE,57,0.0,0.0,65,0.00,,,0.15,Wunderground v.1.15,2013-06-28 00:45:00,
2013-06-27 19:51:00,74.5,61.5,29.64,East,79,0.0,0.0,64,0.00,,,0.15,Wunderground v.1.15,2013-06-28 00:51:00,
2013-06-27 19:57:00,74.1,62.0,29.65,East,80,0.0,0.0,66,0.00,,,0.15,Wunderground v.1.15,2013-06-28 00:57:00,
2013-06-27 20:02:00,73.8,62.6,29.65,ENE,63,0.0,0.0,68,0.00,,,0.15,Wunderground v.1.15,2013-06-28 01:02:00,
2013-06-27 20:08:00,73.4,62.6,29.65,NE,50,0.0,0.0,69,0.00,,,0.15,Wunderground v.1.15,2013-06-28 01:08:00,
2013-06-27 20:13:00,72.8,62.0,29.66,ENE,78,0.0,0.0,69,0.00,,,0.15,Wunderground v.1.15,2013-06-28 01:13:00,
2013-06-27 20:18:00,72.4,62.5,29.65,ENE,70,0.0,0.0,71,0.00,,,0.15,Wunderground v.1.15,2013-06-28 01:18:00,
2013-06-27 20:24:00,71.9,62.0,29.66,ENE,71,0.0,0.0,71,0.00,,,0.15,Wunderground v.1.15,2013-06-28 01:24:00,
2013-06-27 20:31:00,71.4,61.9,29.66,NE,43,0.0,0.0,72,0.00,,,0.15,Wunderground v.1.15,2013-06-28 01:31:00,
2013-06-27 20:36:00,71.1,62.0,29.66,ENE,72,0.0,0.0,73,0.00,,,0.15,Wunderground v.1.15,2013-06-28 01:36:00,
2013-06-27 20:42:00,70.8,62.5,29.67,NE,53,0.0,0.0,75,0.00,,,0.15,Wunderground v.1.15,2013-06-28 01:42:00,
2013-06-27 20:47:00,70.5,62.6,29.67,NE,51,0.0,0.0,76,0.00,,,0.15,Wunderground v.1.15,2013-06-28 01:47:00,
2013-06-27 20:53:00,70.2,62.3,29.67,NE,53,0.0,0.0,76,0.00,,,0.15,Wunderground v.1.15,2013-06-28 01:53:00,
2013-06-27 20:59:00,70.0,62.5,29.67,NE,51,0.0,0.0,77,0.00,,,0.15,Wunderground v.1.15,2013-06-28 01:59:00,
2013-06-27 21:05:00,69.6,61.7,29.67,NE,42,0.0,0.0,76,0.00,,,0.15,Wunderground v.1.15,2013-06-28 02:05:00,
2013-06-27 21:11:00,69.4,61.9,29.67,NNE,20,0.0,0.0,77,0.00,,,0.15,Wunderground v.1.15,2013-06-28 02:11:00,
2013-06-27 21:16:00,69.2,61.7,29.67,NNE,33,0.0,0.0,77,0.00,,,0.15,Wunderground v.1.15,2013-06-28 02:16:00,
2013-06-27 21:23:00,69.0,61.9,29.66,NE,39,0.0,0.0,78,0.00,,,0.15,Wunderground v.1.15,2013-06-28 02:23:00,
2013-06-27 21:28:00,68.7,61.9,29.67,NE,39,0.0,0.0,79,0.00,,,0.15,Wunderground v.1.15,2013-06-28 02:28:00,
2013-06-27 21:33:00,68.4,61.6,29.67,NE,39,0.0,0.0,79,0.00,,,0.15,Wunderground v.1.15,2013-06-28 02:33:00,
2013-06-27 21:40:00,68.1,61.3,29.67,NE,39,0.0,0.0,79,0.00,,,0.15,Wunderground v.1.15,2013-06-28 02:40:00,
2013-06-27 21:45:00,67.9,61.5,29.66,NE,39,0.0,0.0,80,0.00,,,0.15,Wunderground v.1.15,2013-06-28 02:45:00,
2013-06-27 21:51:00,67.4,61.0,29.67,NE,39,0.0,0.0,80,0.00,,,0.15,Wunderground v.1.15,2013-06-28 02:51:00,
2013-06-27 21:57:00,67.0,61.0,29.67,NE,39,0.0,0.0,81,0.00,,,0.15,Wunderground v.1.15,2013-06-28 02:57:00,
2013-06-27 22:02:00,66.8,61.8,29.67,NE,39,0.0,0.0,84,0.00,,,0.15,Wunderground v.1.15,2013-06-28 03:02:00,
2013-06-27 22:07:00,66.3,61.0,29.66,NE,39,0.0,0.0,83,0.00,,,0.15,Wunderground v.1.15,2013-06-28 03:07:00,
2013-06-27 22:13:00,66.0,61.0,29.66,NE,39,0.0,0.0,84,0.00,,,0.15,Wunderground v.1.15,2013-06-28 03:13:00,
2013-06-27 22:19:00,65.9,60.9,29.66,NE,39,0.0,0.0,84,0.00,,,0.15,Wunderground v.1.15,2013-06-28 03:19:00,
2013-06-27 22:25:00,65.8,61.8,29.66,West,264,0.0,0.0,87,0.00,,,0.15,Wunderground v.1.15,2013-06-28 03:25:00,
2013-06-27 22:31:00,65.7,61.1,29.66,SW,230,0.0,0.0,85,0.00,,,0.15,Wunderground v.1.15,2013-06-28 03:31:00,
2013-06-27 22:36:00,66.0,61.0,29.66,SW,225,0.0,0.0,84,0.00,,,0.15,Wunderground v.1.15,2013-06-28 03:36:00,
2013-06-27 22:42:00,66.1,61.1,29.66,SW,225,0.0,0.0,84,0.00,,,0.15,Wunderground v.1.15,2013-06-28 03:42:00,
2013-06-27 22:48:00,66.1,61.1,29.66,SW,225,0.0,0.0,84,0.00,,,0.15,Wunderground v.1.15,2013-06-28 03:48:00,
2013-06-27 22:54:00,65.9,60.9,29.66,SW,225,0.0,0.0,84,0.00,,,0.15,Wunderground v.1.15,2013-06-28 03:54:00,
2013-06-27 23:00:00,65.9,60.9,29.65,SW,225,0.0,0.0,84,0.00,,,0.15,Wunderground v.1.15,2013-06-28 04:00:00,
2013-06-27 23:02:00,65.9,60.9,29.65,SW,225,0.0,0.0,84,0.00,,,0.15,Wunderground v.1.15,2013-06-28 04:02:00,
2013-06-27 23:03:00,65.9,60.9,29.65,SW,225,0.0,0.0,84,0.00,,,0.15,Wunderground v.1.15,2013-06-28 04:03:00,
2013-06-27 23:04:00,65.9,60.9,29.65,SW,227,0.0,0.0,84,0.00,,,0.15,Wunderground v.1.15,2013-06-28 04:04:00,
2013-06-27 23:10:00,65.8,61.2,29.65,SW,219,0.0,0.0,85,0.00,,,0.15,Wunderground v.1.15,2013-06-28 04:10:00,
2013-06-27 23:11:00,65.8,61.2,29.65,SW,219,0.0,0.0,85,0.00,,,0.15,Wunderground v.1.15,2013-06-28 04:11:00,
2013-06-27 23:17:00,65.6,61.3,29.65,SW,222,0.0,0.0,86,0.00,,,0.15,Wunderground v.1.15,2013-06-28 04:17:00,
2013-06-27 23:22:00,65.3,61.3,29.65,SW,225,0.0,0.0,87,0.00,,,0.15,Wunderground v.1.15,2013-06-28 04:22:00,
2013-06-27 23:28:00,64.9,61.3,29.65,SW,231,0.0,0.0,88,0.00,,,0.15,Wunderground v.1.15,2013-06-28 04:28:00,
2013-06-27 23:34:00,64.5,60.9,29.65,SW,221,0.0,0.0,88,0.00,,,0.15,Wunderground v.1.15,2013-06-28 04:34:00,
2013-06-27 23:40:00,64.3,61.0,29.65,SW,232,0.0,0.0,89,0.00,,,0.15,Wunderground v.1.15,2013-06-28 04:40:00,
2013-06-27 23:46:00,64.2,60.9,29.65,WSW,249,0.0,0.0,89,0.00,,,0.15,Wunderground v.1.15,2013-06-28 04:46:00,
2013-06-27 23:51:00,64.3,61.0,29.65,WSW,250,0.0,0.0,89,0.00,,,0.15,Wunderground v.1.15,2013-06-28 04:51:00,
2013-06-27 23:57:00,64.5,60.9,29.65,WSW,247,0.0,0.0,88,0.00,,,0.15,Wunderground v.1.15,2013-06-28 04:57:00,